Location: Trout Lake
(45.9980°N, 121.5270°W)
Time: 10:18:55
(UTC-07:00)

Daily predictions for brighter satellites

Satellite Brightness Start Highest point End
(mag) Time Altitude Azimuth Time Altitude Azimuth Time Altitude Azimuth
Cosmos 482 Debris 4.4 19:18:41 10° W 19:20:26 28° NNW 19:22:44 10° NE
Cosmos 1980 3.9 19:15:09 10° SSW 19:20:48 84° WNW 19:26:30 10° NNE
SL-16 R/B 2.5 19:21:13 10° S 19:26:37 47° ESE 19:32:04 10° NE
Cosmos 1953 3.6 19:24:48 10° SE 19:27:45 20° E 19:30:43 10° NE
USA 215 3.8 19:21:57 10° ENE 19:28:01 39° SE 19:34:03 10° SSW
Cosmos 292 Rocket 3.8 19:24:12 10° SSW 19:29:00 89° WNW 19:33:52 10° NNE
ATLAS CENTAUR R/B 4.0 19:28:26 10° S 19:33:31 49° ESE 19:48:35 10° NE
Spot 1 4.3 19:30:11 10° SSE 19:34:49 57° ENE 19:39:12 10° N
Helios 1A 3.4 19:31:35 10° SE 19:35:31 42° ENE 19:39:29 10° N
Cosmos 1378 3.1 19:33:34 10° N 19:37:19 70° E 19:41:01 10° SSE
Cosmos 1805 4.3 19:34:56 10° SE 19:38:11 25° E 19:41:27 10° NNE
SeaSat 1 4.1 19:36:45 10° ENE 19:38:59 13° ESE 19:41:14 10° SE
COSMO-SKYMED 1 3.1 19:35:00 10° N 19:39:19 65° WNW 19:43:36 10° SSW
H-2A R/B 4.1 19:36:52 10° ESE 19:39:51 21° ENE 19:42:50 10° NNE
Meteor 1-28 Rocket 3.1 19:36:52 10° NNE 19:40:34 62° E 19:44:14 10° S
Cosmos 1452 Rocket 3.7 19:35:28 10° NNW 19:40:37 52° ENE 19:45:44 10° SE
Cosmos 1072 Rocket 4.5 19:34:56 10° S 19:40:54 60° E 19:46:54 10° NNE
CZ-4B DEB 4.1 19:39:45 10° ESE 19:42:25 23° ENE 19:45:04 10° NNE
Cosmos 2219 Rocket 3.6 19:40:48 10° SW 19:46:05 40° NW 19:51:26 10° NNE
ATLAS 3B R/B 3.9 19:38:55 10° WSW 19:46:11 47° NW 19:53:13 10° NNE
METEOR-M 4.1 19:41:21 10° SSE 19:46:41 73° ENE 19:52:02 10° N
Cosmos 1707 4.5 19:44:44 10° NNW 19:48:18 37° W 19:51:51 10° SSW
Cosmos 2278 Rocket 4.0 19:43:48 10° NW 19:48:53 35° WSW 19:53:56 10° S
ALOS 2.8 19:44:50 10° SE 19:49:07 38° ENE 19:53:27 10° N
Meteor 1-22 Rocket 4.1 19:47:23 10° S 19:52:44 89° E 19:58:03 10° N
Cosmos 2297 4.2 19:48:29 10° NNW 19:54:06 63° WSW 19:59:39 10° S
FREGAT/IRIS 3.1 19:52:10 10° S 19:55:14 65° WSW 19:58:19 10° NNW
FENGYUN 3A 3.9 19:50:40 10° SE 19:55:46 46° ENE 20:00:54 10° N
SJ-6B 3.8 19:55:30 10° S 19:59:23 52° W 20:03:22 10° NNW
Cosmos 1470 4.2 19:59:50 18° E 19:59:50 18° E 20:02:29 10° NE
Meteor 1-24 Rocket 4.4 19:54:21 10° NNW 19:59:57 60° W 20:05:18 10° S
Cosmos 1766 Rocket 3.5 19:55:36 10° N 19:59:59 73° E 20:04:20 10° SSE
NOSS 3-2 (A) 3.4 19:57:09 10° SSW 20:03:13 73° SE 20:09:54 10° NE
Cosmos 1420 Rocket 4.3 19:58:29 10° NNW 20:03:36 47° ENE 20:07:54 14° SE
USA 186 3.3 20:06:54 13° NE 20:06:54 13° NE 20:07:26 10° NNE
CZ-4C R/B 3.2 20:02:09 10° WSW 20:07:27 50° NW 20:13:29 10° NNE
Cosmos 2369 Rocket 3.1 20:02:49 10° N 20:07:49 31° NE 20:10:43 20° E
Cosmos 1758 3.3 20:05:10 10° S 20:09:11 59° E 20:13:14 10° NNE
USA 238 DEB 4.4 20:02:19 10° WSW 20:09:14 57° NW 20:16:11 10° NE
USA 238 4.4 20:02:24 10° WSW 20:09:20 57° NW 20:16:17 10° NE
Cosmos 1603 4.0 20:08:29 10° S 20:13:51 44° ESE 20:19:17 10° NE
Cosmos 1943 Rocket 3.7 20:10:55 10° N 20:14:52 19° NE 20:16:47 16° ENE
Cosmos 2034 Rocket 3.9 20:09:09 10° S 20:15:22 75° E 20:21:43 10° NNE
Cosmos 1076 Rocket 4.0 20:11:52 10° NNW 20:16:09 62° W 20:20:25 10° S
Helios 1B rocket 2.4 20:13:21 10° NNE 20:17:29 89° ESE 20:21:36 10° SSW
Cosmos 1464 Rocket 4.1 20:11:37 10° S 20:17:51 80° W 20:24:05 10° N
Cosmos 1269 Rocket 4.3 20:16:25 10° S 20:21:20 41° ESE 20:26:16 10° NE
ASTEX 1 3.5 20:18:21 10° NNE 20:23:11 53° E 20:27:57 10° S
Spot 2 Rocket 4.0 20:18:26 10° S 20:23:23 59° WSW 20:28:24 10° NNW
Cosmos-2242 2.9 20:19:20 10° S 20:23:40 76° E 20:28:05 10° NNE
Cosmos 1048 Rocket 4.4 20:20:37 10° S 20:25:29 38° ESE 20:30:19 10° NE
Cosmos 1674 2.9 20:21:49 10° N 20:25:36 48° ENE 20:26:55 33° SE
Cosmos 2333 Rocket 4.2 20:21:10 10° WSW 20:26:07 29° NW 20:31:07 10° N
FengYun 1-2 T 4.5 20:24:08 10° S 20:29:37 71° WSW 20:35:08 10° NNW
Cosmos 1346 2.9 20:28:22 10° NNW 20:31:22 85° WSW 20:32:16 41° S
Cosmos 1500 Rocket 3.5 20:29:47 10° N 20:34:10 60° E 20:36:15 29° SSE
Envisat 3.8 20:33:30 29° E 20:34:19 31° ENE 20:38:44 10° N
Cosmos 1842 Rocket 3.7 20:32:03 19° SSE 20:34:55 48° E 20:39:07 10° NNE
Cosmos 1939 Rocket 4.1 20:35:38 25° NE 20:35:38 25° NE 20:38:23 10° N
TELKOM 3 3.6 20:33:19 10° WNW 20:35:34 56° W 20:35:34 56° W
Cosmos 2151 3.6 20:33:36 10° N 20:37:16 34° ENE 20:37:16 34° ENE
CENTAUR R/B 3.1 20:35:09 10° S 20:40:26 32° ESE 20:40:44 32° ESE
NOSS 3-2 (C) 3.6 20:34:50 10° SW 20:40:58 83° NW 20:47:47 10° NE
Resurs 01 Rocket 3.4 20:44:37 10° SSW 20:48:35 31° W 20:52:35 10° NNW
Cosmos 2058 4.2 20:46:31 10° N 20:48:56 26° NE 20:48:56 26° NE
Meteor 1-29 4.5 20:47:31 10° N 20:50:50 39° WNW 20:54:06 10° SW
SPOT 5 4.3 20:54:43 19° NE 20:54:43 19° NE 20:56:44 10° NNE
CZ-2D R/B 4.0 20:53:47 20° S 20:56:15 52° W 21:00:05 10° NNW
ATLAS 5 CENTAUR R/B 2.1 20:53:51 10° SW 20:58:40 69° NW 21:03:58 10° NE
Cosmos 1743 Rocket 4.5 20:57:57 10° NNW 21:02:15 48° W 21:05:51 14° SSW
Cosmos 1953 4.1 21:00:24 10° SW 21:04:00 32° WNW 21:07:38 10° N
SL-16 R/B 4.0 21:05:53 10° WSW 21:10:56 32° NW 21:16:01 10° N
USA 215 3.4 21:05:01 11° NE 21:11:19 72° NNW 21:17:49 10° WSW
H-2A R/B 4.4 21:11:42 18° SSW 21:13:58 33° W 21:17:33 10° NNW
Cosmos 1110 Rocket 4.0 21:09:54 10° NNW 21:15:09 61° ENE 21:15:10 61° ENE
ERS-1 Rocket 2.8 21:14:55 72° ESE 21:15:19 78° ENE 21:20:22 10° NNW
GP-B 3.2 21:11:08 10° N 21:15:35 75° W 21:16:19 59° SSW
SeaSat 1 2.3 21:12:10 10° NNE 21:17:09 88° ESE 21:22:05 10° SSW
ARGOS 4.4 21:24:38 28° NE 21:24:38 28° NE 21:28:03 10° N
BREEZE-M DEB (TANK) 3.9 21:15:21 10° W 21:25:51 72° NNW 21:26:54 54° NE
Cosmos 1655 Rocket 3.8 21:19:38 10° N 21:25:54 80° E 21:26:58 62° SSE
ALOS 4.3 21:22:48 10° SSW 21:26:40 25° W 21:30:34 10° NW
Cosmos 2279 Rocket 3.9 21:28:27 62° ENE 21:28:27 62° ENE 21:34:13 10° NNE
Cosmos 1470 4.3 21:35:10 33° W 21:35:39 35° WNW 21:39:15 10° N
SL-24 R/B - RUBIN 2 4.4 21:30:25 10° NW 21:37:10 74° NE 21:37:31 72° ENE
H-2A R/B 3.6 21:46:04 32° N 21:46:04 32° N 21:48:31 10° N
Cosmos 2026 Rocket 4.2 21:40:39 10° NNW 21:46:40 66° W 21:47:56 53° SSW
Cosmos 1634 Rocket 4.5 21:42:18 10° SSW 21:48:26 57° WNW 21:54:34 10° N
Cosmos 1331 Rocket 4.3 21:44:50 10° NNW 21:49:21 63° NW 21:49:21 63° NW
Cosmos 1428 Rocket 4.4 21:44:59 10° N 21:51:10 87° N 21:51:10 87° N
Cosmos 2369 Rocket 2.8 21:46:38 10° NW 21:52:03 48° WSW 21:52:32 47° SW
Cosmos 1943 4.0 21:48:54 10° SSW 21:56:26 42° N 22:00:09 10° NNE
Cosmos 2263 4.5 21:49:10 10° NNW 21:54:43 63° WSW 21:54:43 63° WSW
Cosmos 1943 Rocket 2.6 21:53:46 10° NNW 21:58:18 59° NNW 21:58:18 59° NNW
Terra 4.2 22:05:50 14° NNE 22:05:50 14° NNE 22:06:38 10° N
H-2A R/B 4.0 22:14:42 21° N 22:14:42 21° N 22:16:29 10° N
Envisat 4.3 22:13:43 36° W 22:13:43 36° W 22:17:57 10° NNW
CENTAUR R/B 3.5 22:24:31 10° SW 22:33:45 33° NNE 22:37:40 10° NE
ATLAS 5 CENTAUR R/B 4.3 22:40:42 10° WNW 22:44:24 20° NNW 22:47:31 13° NNE
USA 215 4.4 22:52:23 34° NNE 22:53:47 38° NNW 22:59:42 10° WNW
